TimeEDT,TemperatureF,Dew PointF,Humidity,Sea Level PressureIn,VisibilityMPH,Wind Direction,Wind SpeedMPH,Gust SpeedMPH,PrecipitationIn,Events,Conditions,WindDirDegrees,DateUTC
1:53 AM,44.1,39.0,82,30.14,7.0,Calm,Calm,-,N/A,,Clear,0,2013-09-09 05:53:00
2:06 AM,44.1,39.0,82,30.15,1.8,Calm,Calm,-,N/A,,Haze,0,2013-09-09 06:06:00
2:16 AM,42.1,37.0,82,30.15,3.0,SSE,3.5,-,N/A,,Haze,150,2013-09-09 06:16:00
2:53 AM,42.1,37.0,82,30.13,10.0,SSE,3.5,-,N/A,,Clear,150,2013-09-09 06:53:00
3:53 AM,41.0,37.0,86,30.14,10.0,SSE,3.5,-,N/A,,Clear,150,2013-09-09 07:53:00
4:13 AM,39.0,36.0,89,30.14,1.5,SSE,4.6,-,N/A,,Clear,150,2013-09-09 08:13:00
4:23 AM,39.9,36.0,86,30.15,3.0,SSE,4.6,-,N/A,,Clear,150,2013-09-09 08:23:00
4:53 AM,39.0,36.0,89,30.15,10.0,SE,4.6,-,N/A,,Clear,130,2013-09-09 08:53:00
5:53 AM,39.0,35.1,86,30.16,10.0,SE,3.5,-,N/A,,Clear,140,2013-09-09 09:53:00
6:53 AM,43.0,37.9,82,30.16,10.0,SE,4.6,-,N/A,,Clear,140,2013-09-09 10:53:00
7:53 AM,45.0,39.9,82,30.17,10.0,SE,4.6,-,N/A,,Clear,130,2013-09-09 11:53:00
8:53 AM,51.1,42.1,71,30.17,10.0,ESE,5.8,-,N/A,,Scattered Clouds,120,2013-09-09 12:53:00
9:53 AM,57.9,42.1,56,30.16,10.0,SE,10.4,-,N/A,,Clear,140,2013-09-09 13:53:00
10:53 AM,62.1,45.0,53,30.16,10.0,SSE,9.2,-,N/A,,Clear,160,2013-09-09 14:53:00
11:53 AM,66.9,48.0,51,30.14,10.0,Variable,6.9,-,N/A,,Clear,0,2013-09-09 15:53:00
12:53 PM,70.0,52.0,53,30.13,10.0,SSE,9.2,-,N/A,,Scattered Clouds,160,2013-09-09 16:53:00
1:53 PM,70.0,53.1,55,30.14,10.0,SSW,8.1,-,N/A,,Scattered Clouds,200,2013-09-09 17:53:00
2:53 PM,71.1,55.0,57,30.11,10.0,SSE,9.2,-,N/A,,Mostly Cloudy,160,2013-09-09 18:53:00
3:03 PM,72.0,55.0,55,30.11,10.0,Variable,4.6,-,N/A,,Mostly Cloudy,0,2013-09-09 19:03:00
3:22 PM,71.1,55.0,57,30.12,10.0,South,9.2,-,N/A,,Overcast,180,2013-09-09 19:22:00
3:29 PM,71.1,55.9,59,30.11,10.0,South,8.1,-,N/A,,Overcast,180,2013-09-09 19:29:00
3:53 PM,72.0,57.0,59,30.10,10.0,South,9.2,-,N/A,,Overcast,190,2013-09-09 19:53:00
4:01 PM,72.0,57.0,59,30.10,10.0,Variable,6.9,-,N/A,,Overcast,0,2013-09-09 20:01:00
4:53 PM,68.0,57.9,70,30.10,2.5,South,9.2,-,0.02,Rain,Light Rain,180,2013-09-09 20:53:00
5:02 PM,66.0,59.0,78,30.11,7.0,South,4.6,-,0.00,Rain,Light Rain,190,2013-09-09 21:02:00
5:46 PM,64.0,57.9,80,30.10,9.0,SE,8.1,-,0.00,,Mostly Cloudy,140,2013-09-09 21:46:00
5:53 PM,64.0,57.9,80,30.11,9.0,South,5.8,-,0.00,,Mostly Cloudy,170,2013-09-09 21:53:00
6:53 PM,64.0,57.0,78,30.10,6.0,SSE,6.9,-,0.00,Rain,Light Rain,160,2013-09-09 22:53:00
7:01 PM,63.0,57.0,81,30.10,2.0,SSE,8.1,-,0.03,Rain,Rain,160,2013-09-09 23:01:00
7:21 PM,62.1,57.9,86,30.10,1.8,SSE,8.1,-,0.11,Rain,Heavy Rain,150,2013-09-09 23:21:00
7:26 PM,62.1,57.9,86,30.10,2.0,SSE,6.9,-,0.13,Rain,Heavy Rain,150,2013-09-09 23:26:00
7:44 PM,62.1,57.9,86,30.11,4.0,SSE,5.8,-,0.16,Rain,Light Rain,160,2013-09-09 23:44:00
7:53 PM,62.1,57.9,86,30.11,6.0,SSE,5.8,-,0.16,Rain,Light Rain,150,2013-09-09 23:53:00
8:38 PM,61.0,57.0,87,30.12,7.0,SE,5.8,-,0.01,,Overcast,130,2013-09-10 00:38:00
8:53 PM,61.0,57.9,90,30.12,6.0,SSE,5.8,-,0.01,,Overcast,150,2013-09-10 00:53:00
9:53 PM,61.0,57.0,87,30.10,8.0,SSE,6.9,-,N/A,,Unknown,150,2013-09-10 01:53:00
10:53 PM,61.0,55.9,83,30.10,8.0,SSE,6.9,-,N/A,,Mostly Cloudy,150,2013-09-10 02:53:00
11:53 PM,60.1,55.9,86,30.09,7.0,SE,5.8,-,N/A,,Partly Cloudy,140,2013-09-10 03:53:00